User: anonymous   Login
Location: Fort Wayne
(41.1310°N, 85.1290°W)
Time: 07:53:12
(UTC-04:00)
Language:

Meteor 2-10 Rocket - Orbit

View from above orbital plane
View from above orbital plane
View from above satellite
View from above satellite

Ground track
Ground track

The orbit data is extracted from the following two-line orbital elements,

1 14453U 83109B   15142.13973288  .00000106  00000-0  37432-4 0  9992
2 14453 081.1648 147.8532 0106197 093.6642 267.6688 14.24596748639732
Epoch (UTC): 22 May 2015 03:21:12
Eccentricity: 0.0106197
inclination: 81.1648°
perigee height: 733 km
apogee height: 886 km
right ascension of ascending node: 147.8532°
argument of perigee: 93.6642°
revolutions per day: 14.24596748
mean anomaly at epoch: 267.6688°
orbit number at epoch: 63973

The dashed part of the orbit path shows where the satellite is in the earth's shadow,  

DLR